This demonstration page uses our WeatherBlox Daily Observations layout. Learn more.

38.89511, -77.03637

Hourly Observations for April 4, 2015

Temp ( °F °C ) Dew Point ( °F °C ) Humidity (%) Winds ( mph kmh ) Pressure ( in mb ) Visibility ( mi km ) Precip ( " mm )
12:52 am 00:52 Mostly Cloudy 68 20 53 11.7 59 59 S 21 33 29.6 1002 10 16.0934 0 0.0254
1:52 am 01:52 Mostly Cloudy with Light Rain 67 19.4 53 11.7 61 61 WSW 14 22 29.64 1004 10 16.0934 0 0.0254
2:20 am 02:20 Cloudy 66 19 54 12 64 64 SW 12 19 29.65 1004 10 16.0934 0 0
2:52 am 02:52 Cloudy 66 18.9 54 12.2 65 65 SW 9 15 29.63 1003 10 16.0934 0 0.0254
3:11 am 03:11 Cloudy with Light Rain 66 19 54 12 64 64 W 14 22 29.65 1004 5 8.0467 0 0.0254
3:52 am 03:52 Cloudy with Haze 63 17.2 51 10.6 65 65 W 15 24 29.69 1005 5 8.0467 0.05 1.27
4:52 am 04:52 Cloudy with Light Rain 57 13.9 48 8.9 72 72 NW 21 33 29.73 1007 10 16.0934 0 0.0254
5:52 am 05:52 Mostly Cloudy 56 13.3 43 6.1 62 62 NW 21 33 29.8 1009 10 16.0934 0 0.0254
6:35 am 06:35 Mostly Cloudy 55 13 39 4 55 55 WNW 18 30 29.85 1011 10 16.0934 0 0
6:52 am 06:52 Mostly Cloudy 56 13.3 39 3.9 53 53 WNW 9 15 29.86 1011 10 16.0934 0 0
7:52 am 07:52 Mostly Cloudy 55 12.8 38 3.3 53 53 NW 8 13 29.91 1013 10 16.0934 0 0
8:52 am 08:52 Partly Cloudy 57 13.9 39 3.9 51 51 WNW 13 20 29.93 1014 10 16.0934 0 0
9:52 am 09:52 Mostly Cloudy 56 13.3 37 2.8 49 49 NNW 28 44 29.98 1015 10 16.0934 0 0
10:52 am 10:52 Mostly Cloudy 56 13.3 36 2.2 47 47 NW 17 28 30.03 1017 10 16.0934 0 0
11:52 am 11:52 Mostly Cloudy 57 13.9 30 -1.1 36 36 WNW 26 43 30.05 1018 10 16.0934 0 0
12:37 pm 12:37 Partly Cloudy 57 14 28 -2 33 33 NW 23 37 30.06 1018 10 16.0934 0 0
12:52 pm 12:52 Mostly Sunny 58 14.4 29 -1.7 33 33 WNW 22 35 30.05 1018 10 16.0934 0 0
1:52 pm 13:52 Mostly Sunny 58 14.4 28 -2.2 32 32 WNW 20 31 30.07 1018 10 16.0934 0 0
2:52 pm 14:52 Partly Cloudy 59 15 22 -5.6 24 24 NW 20 31 30.08 1019 10 16.0934 0 0
3:52 pm 15:52 Mostly Sunny 59 15 22 -5.6 24 24 NNW 14 22 30.08 1019 10 16.0934 0 0
4:52 pm 16:52 Mostly Sunny 60 15.6 21 -6.1 22 22 NW 12 19 30.11 1020 10 16.0934 0 0
5:52 pm 17:52 Mostly Sunny 59 15 19 -7.2 21 21 NW 13 20 30.12 1020 10 16.0934 0 0
6:52 pm 18:52 Mostly Sunny 58 14.4 18 -7.8 21 21 WNW 16 26 30.14 1021 10 16.0934 0 0
7:52 pm 19:52 Clear 56 13.3 18 -7.8 22 22 NNW 7 11 30.16 1021 10 16.0934 0 0
8:52 pm 20:52 Clear 55 12.8 16 -8.9 21 21 NW 9 15 30.2 1023 10 16.0934 0 0
9:52 pm 21:52 Clear 54 12.2 17 -8.3 23 23 NW 9 15 30.22 1024 10 16.0934 0 0
10:52 pm 22:52 Clear 52 11.1 19 -7.2 27 27 NNW 5 7 30.24 1024 10 16.0934 0 0
11:52 pm 23:52 Clear 52 11.1 17 -8.3 25 25 WNW 3 6 30.25 1024 10 16.0934 0 0

Powered by AerisWeather